locationName,lineName,date,time,countIn,countOut
�����w�O,�w����,2022/6/1,0:00,0,0
�����w�O,�w����,2022/6/1,1:00,0,0
�����w�O,�w����,2022/6/1,2:00,0,0
�����w�O,�w����,2022/6/1,3:00,0,0
�����w�O,�w����,2022/6/1,4:00,0,0
�����w�O,�w����,2022/6/1,5:00,0,0
�����w�O,�w����,2022/6/1,6:00,0,0
�����w�O,�w����,2022/6/1,7:00,0,0
�����w�O,�w����,2022/6/1,8:00,0,0
�����w�O,�w����,2022/6/1,9:00,0,0
�����w�O,�w����,2022/6/1,10:00,0,0
�����w�O,�w����,2022/6/1,11:00,71,88
�����w�O,�w����,2022/6/1,12:00,104,98
�����w�O,�w����,2022/6/1,13:00,110,105
�����w�O,�w����,2022/6/1,14:00,99,106
�����w�O,�w����,2022/6/1,15:00,169,128
�����w�O,�w����,2022/6/1,16:00,184,118
�����w�O,�w����,2022/6/1,17:00,239,132
�����w�O,�w����,2022/6/1,18:00,170,121
�����w�O,�w����,2022/6/1,19:00,131,117
�����w�O,�w����,2022/6/1,20:00,59,46
�����w�O,�w����,2022/6/1,21:00,55,41
�����w�O,�w����,2022/6/1,22:00,18,17
�����w�O,�w����,2022/6/1,23:00,7,10
�����w�O,�w����,2022/6/2,0:00,1,0
�����w�O,�w����,2022/6/2,1:00,0,0
�����w�O,�w����,2022/6/2,2:00,0,0
�����w�O,�w����,2022/6/2,3:00,0,1
�����w�O,�w����,2022/6/2,4:00,1,0
�����w�O,�w����,2022/6/2,5:00,6,8
�����w�O,�w����,2022/6/2,6:00,82,45
�����w�O,�w����,2022/6/2,7:00,204,161
�����w�O,�w����,2022/6/2,8:00,118,163
�����w�O,�w����,2022/6/2,9:00,82,77
�����w�O,�w����,2022/6/2,10:00,112,113
�����w�O,�w����,2022/6/2,11:00,71,95
�����w�O,�w����,2022/6/2,12:00,92,83
�����w�O,�w����,2022/6/2,13:00,107,73
�����w�O,�w����,2022/6/2,14:00,82,88
�����w�O,�w����,2022/6/2,15:00,125,89
�����w�O,�w����,2022/6/2,16:00,149,128
�����w�O,�w����,2022/6/2,17:00,215,124
�����w�O,�w����,2022/6/2,18:00,209,109
�����w�O,�w����,2022/6/2,19:00,130,139
�����w�O,�w����,2022/6/2,20:00,49,51
�����w�O,�w����,2022/6/2,21:00,25,37
�����w�O,�w����,2022/6/2,22:00,24,46
�����w�O,�w����,2022/6/2,23:00,3,10
�����w�O,�w����,2022/6/3,0:00,2,3
�����w�O,�w����,2022/6/3,1:00,0,0
�����w�O,�w����,2022/6/3,2:00,0,0
�����w�O,�w����,2022/6/3,3:00,0,0
�����w�O,�w����,2022/6/3,4:00,0,0
�����w�O,�w����,2022/6/3,5:00,11,7
�����w�O,�w����,2022/6/3,6:00,72,47
�����w�O,�w����,2022/6/3,7:00,193,154
�����w�O,�w����,2022/6/3,8:00,126,175
�����w�O,�w����,2022/6/3,9:00,79,108
�����w�O,�w����,2022/6/3,10:00,106,161
�����w�O,�w����,2022/6/3,11:00,95,130
�����w�O,�w����,2022/6/3,12:00,126,141
�����w�O,�w����,2022/6/3,13:00,167,142
�����w�O,�w����,2022/6/3,14:00,144,124
�����w�O,�w����,2022/6/3,15:00,149,134
�����w�O,�w����,2022/6/3,16:00,173,108
�����w�O,�w����,2022/6/3,17:00,233,126
�����w�O,�w����,2022/6/3,18:00,207,148
�����w�O,�w����,2022/6/3,19:00,165,146
�����w�O,�w����,2022/6/3,20:00,77,64
�����w�O,�w����,2022/6/3,21:00,62,58
�����w�O,�w����,2022/6/3,22:00,20,43
�����w�O,�w����,2022/6/3,23:00,30,40
�����w�O,�w����,2022/6/4,0:00,2,2
�����w�O,�w����,2022/6/4,1:00,0,1
�����w�O,�w����,2022/6/4,2:00,0,0
�����w�O,�w����,2022/6/4,3:00,0,1
�����w�O,�w����,2022/6/4,4:00,0,1
�����w�O,�w����,2022/6/4,5:00,15,10
�����w�O,�w����,2022/6/4,6:00,51,37
�����w�O,�w����,2022/6/4,7:00,112,105
�����w�O,�w����,2022/6/4,8:00,109,150
�����w�O,�w����,2022/6/4,9:00,126,168
�����w�O,�w����,2022/6/4,10:00,135,149
�����w�O,�w����,2022/6/4,11:00,127,161
�����w�O,�w����,2022/6/4,12:00,145,200
�����w�O,�w����,2022/6/4,13:00,242,194
�����w�O,�w����,2022/6/4,14:00,183,190
�����w�O,�w����,2022/6/4,15:00,199,163
�����w�O,�w����,2022/6/4,16:00,219,169
�����w�O,�w����,2022/6/4,17:00,225,160
�����w�O,�w����,2022/6/4,18:00,164,121
�����w�O,�w����,2022/6/4,19:00,102,149
�����w�O,�w����,2022/6/4,20:00,65,47
�����w�O,�w����,2022/6/4,21:00,54,61
�����w�O,�w����,2022/6/4,22:00,34,45
�����w�O,�w����,2022/6/4,23:00,12,25
�����w�O,�w����,2022/6/5,0:00,0,0
�����w�O,�w����,2022/6/5,1:00,0,0
�����w�O,�w����,2022/6/5,2:00,0,0
�����w�O,�w����,2022/6/5,3:00,0,0
�����w�O,�w����,2022/6/5,4:00,0,0
�����w�O,�w����,2022/6/5,5:00,6,3
�����w�O,�w����,2022/6/5,6:00,55,32
�����w�O,�w����,2022/6/5,7:00,54,59
�����w�O,�w����,2022/6/5,8:00,76,98
�����w�O,�w����,2022/6/5,9:00,127,109
�����w�O,�w����,2022/6/5,10:00,189,173
�����w�O,�w����,2022/6/5,11:00,152,225
�����w�O,�w����,2022/6/5,12:00,186,175
�����w�O,�w����,2022/6/5,13:00,203,166
�����w�O,�w����,2022/6/5,14:00,303,268
�����w�O,�w����,2022/6/5,15:00,211,122
�����w�O,�w����,2022/6/5,16:00,179,117
�����w�O,�w����,2022/6/5,17:00,158,128
�����w�O,�w����,2022/6/5,18:00,102,84
�����w�O,�w����,2022/6/5,19:00,86,128
�����w�O,�w����,2022/6/5,20:00,42,44
�����w�O,�w����,2022/6/5,21:00,40,57
�����w�O,�w����,2022/6/5,22:00,8,27
�����w�O,�w����,2022/6/5,23:00,5,5
�����w�O,�w����,2022/6/6,0:00,1,0
�����w�O,�w����,2022/6/6,1:00,0,1
�����w�O,�w����,2022/6/6,2:00,0,0
�����w�O,�w����,2022/6/6,3:00,0,0
�����w�O,�w����,2022/6/6,4:00,1,0
�����w�O,�w����,2022/6/6,5:00,10,5
�����w�O,�w����,2022/6/6,6:00,114,57
�����w�O,�w����,2022/6/6,7:00,243,250
�����w�O,�w����,2022/6/6,8:00,150,167
�����w�O,�w����,2022/6/6,9:00,125,157
�����w�O,�w����,2022/6/6,10:00,117,108
�����w�O,�w����,2022/6/6,11:00,80,90
�����w�O,�w����,2022/6/6,12:00,157,157
�����w�O,�w����,2022/6/6,13:00,113,79
�����w�O,�w����,2022/6/6,14:00,125,125
�����w�O,�w����,2022/6/6,15:00,123,104
�����w�O,�w����,2022/6/6,16:00,184,143
�����w�O,�w����,2022/6/6,17:00,260,118
�����w�O,�w����,2022/6/6,18:00,265,125
�����w�O,�w����,2022/6/6,19:00,152,147
�����w�O,�w����,2022/6/6,20:00,72,56
�����w�O,�w����,2022/6/6,21:00,51,52
�����w�O,�w����,2022/6/6,22:00,14,23
�����w�O,�w����,2022/6/6,23:00,4,5
�����w�O,�w����,2022/6/7,0:00,1,0
�����w�O,�w����,2022/6/7,1:00,0,0
�����w�O,�w����,2022/6/7,2:00,1,0
�����w�O,�w����,2022/6/7,3:00,0,1
�����w�O,�w����,2022/6/7,4:00,0,1
�����w�O,�w����,2022/6/7,5:00,5,0
�����w�O,�w����,2022/6/7,6:00,95,49
�����w�O,�w����,2022/6/7,7:00,233,192
�����w�O,�w����,2022/6/7,8:00,148,192
�����w�O,�w����,2022/6/7,9:00,120,142
�����w�O,�w����,2022/6/7,10:00,109,120
�����w�O,�w����,2022/6/7,11:00,140,155
�����w�O,�w����,2022/6/7,12:00,105,129
�����w�O,�w����,2022/6/7,13:00,99,112
�����w�O,�w����,2022/6/7,14:00,104,93
�����w�O,�w����,2022/6/7,15:00,141,95
�����w�O,�w����,2022/6/7,16:00,156,118
�����w�O,�w����,2022/6/7,17:00,249,127
�����w�O,�w����,2022/6/7,18:00,217,145
�����w�O,�w����,2022/6/7,19:00,154,120
�����w�O,�w����,2022/6/7,20:00,69,45
�����w�O,�w����,2022/6/7,21:00,37,56
�����w�O,�w����,2022/6/7,22:00,32,42
�����w�O,�w����,2022/6/7,23:00,6,7
�����w�O,�w����,2022/6/8,0:00,0,10
�����w�O,�w����,2022/6/8,1:00,0,0
�����w�O,�w����,2022/6/8,2:00,0,0
�����w�O,�w����,2022/6/8,3:00,1,0
�����w�O,�w����,2022/6/8,4:00,0,0
�����w�O,�w����,2022/6/8,5:00,6,7
�����w�O,�w����,2022/6/8,6:00,87,49
�����w�O,�w����,2022/6/8,7:00,231,187
�����w�O,�w����,2022/6/8,8:00,120,174
�����w�O,�w����,2022/6/8,9:00,82,94
�����w�O,�w����,2022/6/8,10:00,132,144
�����w�O,�w����,2022/6/8,11:00,107,118
�����w�O,�w����,2022/6/8,12:00,104,123
�����w�O,�w����,2022/6/8,13:00,104,87
�����w�O,�w����,2022/6/8,14:00,95,93
�����w�O,�w����,2022/6/8,15:00,170,159
�����w�O,�w����,2022/6/8,16:00,195,127
�����w�O,�w����,2022/6/8,17:00,246,122
�����w�O,�w����,2022/6/8,18:00,209,134
�����w�O,�w����,2022/6/8,19:00,119,118
�����w�O,�w����,2022/6/8,20:00,65,49
�����w�O,�w����,2022/6/8,21:00,39,60
�����w�O,�w����,2022/6/8,22:00,16,18
�����w�O,�w����,2022/6/8,23:00,4,10
�����w�O,�w����,2022/6/9,0:00,1,0
�����w�O,�w����,2022/6/9,1:00,0,0
�����w�O,�w����,2022/6/9,2:00,0,0
�����w�O,�w����,2022/6/9,3:00,0,1
�����w�O,�w����,2022/6/9,4:00,4,1
�����w�O,�w����,2022/6/9,5:00,8,8
�����w�O,�w����,2022/6/9,6:00,81,46
�����w�O,�w����,2022/6/9,7:00,198,170
�����w�O,�w����,2022/6/9,8:00,136,161
�����w�O,�w����,2022/6/9,9:00,89,109
�����w�O,�w����,2022/6/9,10:00,104,98
�����w�O,�w����,2022/6/9,11:00,73,88
�����w�O,�w����,2022/6/9,12:00,106,112
�����w�O,�w����,2022/6/9,13:00,124,137
�����w�O,�w����,2022/6/9,14:00,128,104
�����w�O,�w����,2022/6/9,15:00,140,95
�����w�O,�w����,2022/6/9,16:00,190,129
�����w�O,�w����,2022/6/9,17:00,227,158
�����w�O,�w����,2022/6/9,18:00,222,144
�����w�O,�w����,2022/6/9,19:00,164,208
�����w�O,�w����,2022/6/9,20:00,64,79
�����w�O,�w����,2022/6/9,21:00,49,67
�����w�O,�w����,2022/6/9,22:00,16,24
�����w�O,�w����,2022/6/9,23:00,15,4
�����w�O,�w����,2022/6/10,0:00,3,3
�����w�O,�w����,2022/6/10,1:00,3,3
�����w�O,�w����,2022/6/10,2:00,0,0
�����w�O,�w����,2022/6/10,3:00,1,1
�����w�O,�w����,2022/6/10,4:00,2,0
�����w�O,�w����,2022/6/10,5:00,12,10
�����w�O,�w����,2022/6/10,6:00,89,64
�����w�O,�w����,2022/6/10,7:00,189,189
�����w�O,�w����,2022/6/10,8:00,122,201
�����w�O,�w����,2022/6/10,9:00,91,132
�����w�O,�w����,2022/6/10,10:00,105,116
�����w�O,�w����,2022/6/10,11:00,99,125
�����w�O,�w����,2022/6/10,12:00,96,142
�����w�O,�w����,2022/6/10,13:00,132,97
�����w�O,�w����,2022/6/10,14:00,132,138
�����w�O,�w����,2022/6/10,15:00,161,111
�����w�O,�w����,2022/6/10,16:00,196,116
�����w�O,�w����,2022/6/10,17:00,252,122
�����w�O,�w����,2022/6/10,18:00,226,147
�����w�O,�w����,2022/6/10,19:00,124,149
�����w�O,�w����,2022/6/10,20:00,67,80
�����w�O,�w����,2022/6/10,21:00,72,66
�����w�O,�w����,2022/6/10,22:00,48,41
�����w�O,�w����,2022/6/10,23:00,34,31
�����w�O,�w����,2022/6/11,0:00,5,2
�����w�O,�w����,2022/6/11,1:00,2,0
�����w�O,�w����,2022/6/11,2:00,1,6
�����w�O,�w����,2022/6/11,3:00,3,5
�����w�O,�w����,2022/6/11,4:00,5,4
�����w�O,�w����,2022/6/11,5:00,5,5
�����w�O,�w����,2022/6/11,6:00,56,26
�����w�O,�w����,2022/6/11,7:00,112,98
�����w�O,�w����,2022/6/11,8:00,111,134
�����w�O,�w����,2022/6/11,9:00,133,140
�����w�O,�w����,2022/6/11,10:00,119,152
�����w�O,�w����,2022/6/11,11:00,143,228
�����w�O,�w����,2022/6/11,12:00,193,187
�����w�O,�w����,2022/6/11,13:00,184,143
�����w�O,�w����,2022/6/11,14:00,204,217
�����w�O,�w����,2022/6/11,15:00,175,112
�����w�O,�w����,2022/6/11,16:00,224,172
�����w�O,�w����,2022/6/11,17:00,205,168
�����w�O,�w����,2022/6/11,18:00,161,143
�����w�O,�w����,2022/6/11,19:00,114,119
�����w�O,�w����,2022/6/11,20:00,85,94
�����w�O,�w����,2022/6/11,21:00,79,96
�����w�O,�w����,2022/6/11,22:00,50,54
�����w�O,�w����,2022/6/11,23:00,43,52
�����w�O,�w����,2022/6/12,0:00,3,4
�����w�O,�w����,2022/6/12,1:00,0,0
�����w�O,�w����,2022/6/12,2:00,0,0
�����w�O,�w����,2022/6/12,3:00,0,1
�����w�O,�w����,2022/6/12,4:00,3,3
�����w�O,�w����,2022/6/12,5:00,6,5
�����w�O,�w����,2022/6/12,6:00,30,23
�����w�O,�w����,2022/6/12,7:00,56,51
�����w�O,�w����,2022/6/12,8:00,120,142
�����w�O,�w����,2022/6/12,9:00,161,207
�����w�O,�w����,2022/6/12,10:00,160,205
�����w�O,�w����,2022/6/12,11:00,187,217
�����w�O,�w����,2022/6/12,12:00,227,232
�����w�O,�w����,2022/6/12,13:00,233,164
�����w�O,�w����,2022/6/12,14:00,298,203
�����w�O,�w����,2022/6/12,15:00,250,198
�����w�O,�w����,2022/6/12,16:00,264,206
�����w�O,�w����,2022/6/12,17:00,216,208
�����w�O,�w����,2022/6/12,18:00,146,94
�����w�O,�w����,2022/6/12,19:00,96,124
�����w�O,�w����,2022/6/12,20:00,93,84
�����w�O,�w����,2022/6/12,21:00,44,67
�����w�O,�w����,2022/6/12,22:00,19,25
�����w�O,�w����,2022/6/12,23:00,16,15
�����w�O,�w����,2022/6/13,0:00,1,0
�����w�O,�w����,2022/6/13,1:00,0,0
�����w�O,�w����,2022/6/13,2:00,0,0
�����w�O,�w����,2022/6/13,3:00,0,0
�����w�O,�w����,2022/6/13,4:00,3,0
�����w�O,�w����,2022/6/13,5:00,7,6
�����w�O,�w����,2022/6/13,6:00,88,42
�����w�O,�w����,2022/6/13,7:00,184,170
�����w�O,�w����,2022/6/13,8:00,141,205
�����w�O,�w����,2022/6/13,9:00,86,114
�����w�O,�w����,2022/6/13,10:00,162,168
�����w�O,�w����,2022/6/13,11:00,88,119
�����w�O,�w����,2022/6/13,12:00,132,124
�����w�O,�w����,2022/6/13,13:00,135,96
�����w�O,�w����,2022/6/13,14:00,137,148
�����w�O,�w����,2022/6/13,15:00,135,92
�����w�O,�w����,2022/6/13,16:00,201,128
�����w�O,�w����,2022/6/13,17:00,247,139
�����w�O,�w����,2022/6/13,18:00,196,130
�����w�O,�w����,2022/6/13,19:00,149,143
�����w�O,�w����,2022/6/13,20:00,69,60
�����w�O,�w����,2022/6/13,21:00,70,87
�����w�O,�w����,2022/6/13,22:00,31,44
�����w�O,�w����,2022/6/13,23:00,5,4
�����w�O,�w����,2022/6/14,0:00,3,2
�����w�O,�w����,2022/6/14,1:00,0,0
�����w�O,�w����,2022/6/14,2:00,0,0
�����w�O,�w����,2022/6/14,3:00,1,0
�����w�O,�w����,2022/6/14,4:00,3,2
�����w�O,�w����,2022/6/14,5:00,15,2
�����w�O,�w����,2022/6/14,6:00,161,72
�����w�O,�w����,2022/6/14,7:00,257,214
�����w�O,�w����,2022/6/14,8:00,163,180
�����w�O,�w����,2022/6/14,9:00,85,116
�����w�O,�w����,2022/6/14,10:00,92,141
�����w�O,�w����,2022/6/14,11:00,83,87
�����w�O,�w����,2022/6/14,12:00,88,70
�����w�O,�w����,2022/6/14,13:00,96,81
�����w�O,�w����,2022/6/14,14:00,97,102
�����w�O,�w����,2022/6/14,15:00,200,121
�����w�O,�w����,2022/6/14,16:00,213,119
�����w�O,�w����,2022/6/14,17:00,254,108
�����w�O,�w����,2022/6/14,18:00,231,148
�����w�O,�w����,2022/6/14,19:00,137,135
�����w�O,�w����,2022/6/14,20:00,65,59
�����w�O,�w����,2022/6/14,21:00,48,41
�����w�O,�w����,2022/6/14,22:00,19,27
�����w�O,�w����,2022/6/14,23:00,10,9
�����w�O,�w����,2022/6/15,0:00,0,0
�����w�O,�w����,2022/6/15,1:00,1,4
�����w�O,�w����,2022/6/15,2:00,0,0
�����w�O,�w����,2022/6/15,3:00,1,1
�����w�O,�w����,2022/6/15,4:00,0,1
�����w�O,�w����,2022/6/15,5:00,3,2
�����w�O,�w����,2022/6/15,6:00,92,63
�����w�O,�w����,2022/6/15,7:00,202,172
�����w�O,�w����,2022/6/15,8:00,145,172
�����w�O,�w����,2022/6/15,9:00,99,109
�����w�O,�w����,2022/6/15,10:00,106,108
�����w�O,�w����,2022/6/15,11:00,106,121
�����w�O,�w����,2022/6/15,12:00,119,117
�����w�O,�w����,2022/6/15,13:00,91,91
�����w�O,�w����,2022/6/15,14:00,98,91
�����w�O,�w����,2022/6/15,15:00,172,119
�����w�O,�w����,2022/6/15,16:00,196,109
�����w�O,�w����,2022/6/15,17:00,240,130
�����w�O,�w����,2022/6/15,18:00,179,108
�����w�O,�w����,2022/6/15,19:00,119,121
�����w�O,�w����,2022/6/15,20:00,69,66
�����w�O,�w����,2022/6/15,21:00,53,61
�����w�O,�w����,2022/6/15,22:00,18,33
�����w�O,�w����,2022/6/15,23:00,10,11
�����w�O,�w����,2022/6/16,0:00,4,4
�����w�O,�w����,2022/6/16,1:00,0,0
�����w�O,�w����,2022/6/16,2:00,0,0
�����w�O,�w����,2022/6/16,3:00,1,1
�����w�O,�w����,2022/6/16,4:00,1,0
�����w�O,�w����,2022/6/16,5:00,7,8
�����w�O,�w����,2022/6/16,6:00,94,46
�����w�O,�w����,2022/6/16,7:00,206,183
�����w�O,�w����,2022/6/16,8:00,128,179
�����w�O,�w����,2022/6/16,9:00,88,80
�����w�O,�w����,2022/6/16,10:00,100,166
�����w�O,�w����,2022/6/16,11:00,100,139
�����w�O,�w����,2022/6/16,12:00,121,99
�����w�O,�w����,2022/6/16,13:00,108,101
�����w�O,�w����,2022/6/16,14:00,114,122
�����w�O,�w����,2022/6/16,15:00,155,113
�����w�O,�w����,2022/6/16,16:00,164,139
�����w�O,�w����,2022/6/16,17:00,206,112
�����w�O,�w����,2022/6/16,18:00,222,164
�����w�O,�w����,2022/6/16,19:00,130,143
�����w�O,�w����,2022/6/16,20:00,95,103
�����w�O,�w����,2022/6/16,21:00,64,73
�����w�O,�w����,2022/6/16,22:00,17,34
�����w�O,�w����,2022/6/16,23:00,13,13
�����w�O,�w����,2022/6/17,0:00,3,1
�����w�O,�w����,2022/6/17,1:00,3,1
�����w�O,�w����,2022/6/17,2:00,0,0
�����w�O,�w����,2022/6/17,3:00,0,0
�����w�O,�w����,2022/6/17,4:00,2,0
�����w�O,�w����,2022/6/17,5:00,5,5
�����w�O,�w����,2022/6/17,6:00,84,42
�����w�O,�w����,2022/6/17,7:00,212,160
�����w�O,�w����,2022/6/17,8:00,132,175
�����w�O,�w����,2022/6/17,9:00,96,113
�����w�O,�w����,2022/6/17,10:00,129,138
�����w�O,�w����,2022/6/17,11:00,105,148
�����w�O,�w����,2022/6/17,12:00,143,151
�����w�O,�w����,2022/6/17,13:00,145,125
�����w�O,�w����,2022/6/17,14:00,157,173
�����w�O,�w����,2022/6/17,15:00,172,125
�����w�O,�w����,2022/6/17,16:00,249,164
�����w�O,�w����,2022/6/17,17:00,269,150
�����w�O,�w����,2022/6/17,18:00,222,179
�����w�O,�w����,2022/6/17,19:00,177,181
�����w�O,�w����,2022/6/17,20:00,72,65
�����w�O,�w����,2022/6/17,21:00,74,70
�����w�O,�w����,2022/6/17,22:00,36,67
�����w�O,�w����,2022/6/17,23:00,26,23
�����w�O,�w����,2022/6/18,0:00,3,3
�����w�O,�w����,2022/6/18,1:00,0,0
�����w�O,�w����,2022/6/18,2:00,0,0
�����w�O,�w����,2022/6/18,3:00,0,1
�����w�O,�w����,2022/6/18,4:00,1,1
�����w�O,�w����,2022/6/18,5:00,9,7
�����w�O,�w����,2022/6/18,6:00,32,31
�����w�O,�w����,2022/6/18,7:00,103,139
�����w�O,�w����,2022/6/18,8:00,111,153
�����w�O,�w����,2022/6/18,9:00,129,188
�����w�O,�w����,2022/6/18,10:00,170,230
�����w�O,�w����,2022/6/18,11:00,189,223
�����w�O,�w����,2022/6/18,12:00,194,186
�����w�O,�w����,2022/6/18,13:00,239,209
�����w�O,�w����,2022/6/18,14:00,212,181
�����w�O,�w����,2022/6/18,15:00,227,204
�����w�O,�w����,2022/6/18,16:00,213,168
�����w�O,�w����,2022/6/18,17:00,188,169
�����w�O,�w����,2022/6/18,18:00,168,146
�����w�O,�w����,2022/6/18,19:00,152,142
�����w�O,�w����,2022/6/18,20:00,91,88
�����w�O,�w����,2022/6/18,21:00,104,98
�����w�O,�w����,2022/6/18,22:00,91,99
�����w�O,�w����,2022/6/18,23:00,19,23
�����w�O,�w����,2022/6/19,0:00,0,3
�����w�O,�w����,2022/6/19,1:00,2,1
�����w�O,�w����,2022/6/19,2:00,2,4
�����w�O,�w����,2022/6/19,3:00,1,1
�����w�O,�w����,2022/6/19,4:00,8,2
�����w�O,�w����,2022/6/19,5:00,5,4
�����w�O,�w����,2022/6/19,6:00,27,16
�����w�O,�w����,2022/6/19,7:00,54,42
�����w�O,�w����,2022/6/19,8:00,85,87
�����w�O,�w����,2022/6/19,9:00,129,158
�����w�O,�w����,2022/6/19,10:00,163,173
�����w�O,�w����,2022/6/19,11:00,151,215
�����w�O,�w����,2022/6/19,12:00,174,191
�����w�O,�w����,2022/6/19,13:00,214,186
�����w�O,�w����,2022/6/19,14:00,228,163
�����w�O,�w����,2022/6/19,15:00,230,156
�����w�O,�w����,2022/6/19,16:00,180,126
�����w�O,�w����,2022/6/19,17:00,153,143
�����w�O,�w����,2022/6/19,18:00,159,109
�����w�O,�w����,2022/6/19,19:00,100,103
�����w�O,�w����,2022/6/19,20:00,59,52
�����w�O,�w����,2022/6/19,21:00,41,51
�����w�O,�w����,2022/6/19,22:00,20,22
�����w�O,�w����,2022/6/19,23:00,14,16
�����w�O,�w����,2022/6/20,0:00,0,0
�����w�O,�w����,2022/6/20,1:00,0,0
�����w�O,�w����,2022/6/20,2:00,3,7
�����w�O,�w����,2022/6/20,3:00,0,0
�����w�O,�w����,2022/6/20,4:00,1,0
�����w�O,�w����,2022/6/20,5:00,6,4
�����w�O,�w����,2022/6/20,6:00,92,40
�����w�O,�w����,2022/6/20,7:00,178,179
�����w�O,�w����,2022/6/20,8:00,134,234
�����w�O,�w����,2022/6/20,9:00,98,117
�����w�O,�w����,2022/6/20,10:00,110,121
�����w�O,�w����,2022/6/20,11:00,86,107
�����w�O,�w����,2022/6/20,12:00,128,137
�����w�O,�w����,2022/6/20,13:00,140,138
�����w�O,�w����,2022/6/20,14:00,108,120
�����w�O,�w����,2022/6/20,15:00,146,87
�����w�O,�w����,2022/6/20,16:00,178,113
�����w�O,�w����,2022/6/20,17:00,228,136
�����w�O,�w����,2022/6/20,18:00,217,124
�����w�O,�w����,2022/6/20,19:00,106,111
�����w�O,�w����,2022/6/20,20:00,59,55
�����w�O,�w����,2022/6/20,21:00,35,54
�����w�O,�w����,2022/6/20,22:00,16,31
�����w�O,�w����,2022/6/20,23:00,9,6
�����w�O,�w����,2022/6/21,0:00,1,0
�����w�O,�w����,2022/6/21,1:00,0,0
�����w�O,�w����,2022/6/21,2:00,0,0
�����w�O,�w����,2022/6/21,3:00,0,0
�����w�O,�w����,2022/6/21,4:00,1,1
�����w�O,�w����,2022/6/21,5:00,6,4
�����w�O,�w����,2022/6/21,6:00,113,65
�����w�O,�w����,2022/6/21,7:00,248,215
�����w�O,�w����,2022/6/21,8:00,145,208
�����w�O,�w����,2022/6/21,9:00,93,115
�����w�O,�w����,2022/6/21,10:00,107,115
�����w�O,�w����,2022/6/21,11:00,140,141
�����w�O,�w����,2022/6/21,12:00,135,142
�����w�O,�w����,2022/6/21,13:00,114,91
�����w�O,�w����,2022/6/21,14:00,121,153
�����w�O,�w����,2022/6/21,15:00,163,100
�����w�O,�w����,2022/6/21,16:00,194,127
�����w�O,�w����,2022/6/21,17:00,314,147
�����w�O,�w����,2022/6/21,18:00,247,162
�����w�O,�w����,2022/6/21,19:00,122,140
�����w�O,�w����,2022/6/21,20:00,55,51
�����w�O,�w����,2022/6/21,21:00,51,55
�����w�O,�w����,2022/6/21,22:00,12,36
�����w�O,�w����,2022/6/21,23:00,10,15
�����w�O,�w����,2022/6/22,0:00,2,1
�����w�O,�w����,2022/6/22,1:00,0,0
�����w�O,�w����,2022/6/22,2:00,2,0
�����w�O,�w����,2022/6/22,3:00,2,1
�����w�O,�w����,2022/6/22,4:00,1,1
�����w�O,�w����,2022/6/22,5:00,4,5
�����w�O,�w����,2022/6/22,6:00,115,63
�����w�O,�w����,2022/6/22,7:00,235,256
�����w�O,�w����,2022/6/22,8:00,142,199
�����w�O,�w����,2022/6/22,9:00,85,95
�����w�O,�w����,2022/6/22,10:00,116,118
�����w�O,�w����,2022/6/22,11:00,96,110
�����w�O,�w����,2022/6/22,12:00,112,122
�����w�O,�w����,2022/6/22,13:00,105,99
�����w�O,�w����,2022/6/22,14:00,97,106
�����w�O,�w����,2022/6/22,15:00,153,131
�����w�O,�w����,2022/6/22,16:00,203,116
�����w�O,�w����,2022/6/22,17:00,315,143
�����w�O,�w����,2022/6/22,18:00,245,120
�����w�O,�w����,2022/6/22,19:00,137,153
�����w�O,�w����,2022/6/22,20:00,57,42
�����w�O,�w����,2022/6/22,21:00,62,60
�����w�O,�w����,2022/6/22,22:00,27,40
�����w�O,�w����,2022/6/22,23:00,17,16
�����w�O,�w����,2022/6/23,0:00,5,3
�����w�O,�w����,2022/6/23,1:00,0,0
�����w�O,�w����,2022/6/23,2:00,1,1
�����w�O,�w����,2022/6/23,3:00,0,1
�����w�O,�w����,2022/6/23,4:00,2,0
�����w�O,�w����,2022/6/23,5:00,7,10
�����w�O,�w����,2022/6/23,6:00,95,57
�����w�O,�w����,2022/6/23,7:00,227,200
�����w�O,�w����,2022/6/23,8:00,124,201
�����w�O,�w����,2022/6/23,9:00,104,105
�����w�O,�w����,2022/6/23,10:00,119,100
�����w�O,�w����,2022/6/23,11:00,95,122
�����w�O,�w����,2022/6/23,12:00,110,119
�����w�O,�w����,2022/6/23,13:00,128,102
�����w�O,�w����,2022/6/23,14:00,97,107
�����w�O,�w����,2022/6/23,15:00,154,120
�����w�O,�w����,2022/6/23,16:00,163,126
�����w�O,�w����,2022/6/23,17:00,247,142
�����w�O,�w����,2022/6/23,18:00,208,128
�����w�O,�w����,2022/6/23,19:00,109,107
�����w�O,�w����,2022/6/23,20:00,81,72
�����w�O,�w����,2022/6/23,21:00,52,47
�����w�O,�w����,2022/6/23,22:00,21,42
�����w�O,�w����,2022/6/23,23:00,11,19
�����w�O,�w����,2022/6/24,0:00,1,1
�����w�O,�w����,2022/6/24,1:00,0,0
�����w�O,�w����,2022/6/24,2:00,0,0
�����w�O,�w����,2022/6/24,3:00,0,0
�����w�O,�w����,2022/6/24,4:00,1,0
�����w�O,�w����,2022/6/24,5:00,12,7
�����w�O,�w����,2022/6/24,6:00,96,54
�����w�O,�w����,2022/6/24,7:00,213,186
�����w�O,�w����,2022/6/24,8:00,145,197
�����w�O,�w����,2022/6/24,9:00,117,174
�����w�O,�w����,2022/6/24,10:00,152,171
�����w�O,�w����,2022/6/24,11:00,88,134
�����w�O,�w����,2022/6/24,12:00,130,141
�����w�O,�w����,2022/6/24,13:00,140,131
�����w�O,�w����,2022/6/24,14:00,173,150
�����w�O,�w����,2022/6/24,15:00,198,128
�����w�O,�w����,2022/6/24,16:00,255,186
�����w�O,�w����,2022/6/24,17:00,245,169
�����w�O,�w����,2022/6/24,18:00,179,138
�����w�O,�w����,2022/6/24,19:00,132,123
�����w�O,�w����,2022/6/24,20:00,71,63
�����w�O,�w����,2022/6/24,21:00,70,71
�����w�O,�w����,2022/6/24,22:00,76,68
�����w�O,�w����,2022/6/24,23:00,20,29
�����w�O,�w����,2022/6/25,0:00,2,8
�����w�O,�w����,2022/6/25,1:00,2,0
�����w�O,�w����,2022/6/25,2:00,1,1
�����w�O,�w����,2022/6/25,3:00,1,1
�����w�O,�w����,2022/6/25,4:00,1,2
�����w�O,�w����,2022/6/25,5:00,8,12
�����w�O,�w����,2022/6/25,6:00,54,29
�����w�O,�w����,2022/6/25,7:00,68,109
�����w�O,�w����,2022/6/25,8:00,114,149
�����w�O,�w����,2022/6/25,9:00,98,137
�����w�O,�w����,2022/6/25,10:00,162,215
�����w�O,�w����,2022/6/25,11:00,140,179
�����w�O,�w����,2022/6/25,12:00,186,174
�����w�O,�w����,2022/6/25,13:00,181,161
�����w�O,�w����,2022/6/25,14:00,214,182
�����w�O,�w����,2022/6/25,15:00,251,176
�����w�O,�w����,2022/6/25,16:00,183,149
�����w�O,�w����,2022/6/25,17:00,160,162
�����w�O,�w����,2022/6/25,18:00,167,111
�����w�O,�w����,2022/6/25,19:00,110,110
�����w�O,�w����,2022/6/25,20:00,110,103
�����w�O,�w����,2022/6/25,21:00,85,100
�����w�O,�w����,2022/6/25,22:00,44,65
�����w�O,�w����,2022/6/25,23:00,33,37
�����w�O,�w����,2022/6/26,0:00,2,9
�����w�O,�w����,2022/6/26,1:00,0,3
�����w�O,�w����,2022/6/26,2:00,1,3
�����w�O,�w����,2022/6/26,3:00,3,6
�����w�O,�w����,2022/6/26,4:00,9,16
�����w�O,�w����,2022/6/26,5:00,8,10
�����w�O,�w����,2022/6/26,6:00,30,27
�����w�O,�w����,2022/6/26,7:00,108,84
�����w�O,�w����,2022/6/26,8:00,131,153
�����w�O,�w����,2022/6/26,9:00,127,138
�����w�O,�w����,2022/6/26,10:00,182,206
�����w�O,�w����,2022/6/26,11:00,129,175
�����w�O,�w����,2022/6/26,12:00,172,208
�����w�O,�w����,2022/6/26,13:00,241,170
�����w�O,�w����,2022/6/26,14:00,242,179
�����w�O,�w����,2022/6/26,15:00,225,180
�����w�O,�w����,2022/6/26,16:00,206,144
�����w�O,�w����,2022/6/26,17:00,187,132
�����w�O,�w����,2022/6/26,18:00,103,95